Hearne, TX

3:34 PM CDT on September 28, 2016 (GMT -0500)
Hearne

Weather History for KLHB - January, 2013

Change the Weather History Date:

Friday, January 4, 2013

  Actual Average (KCLL) Record (KCLL)
Temperature  
Mean Temperature 46 °F 51 °F  
Max Temperature 50 °F 60 °F 82 °F (1997)
Min Temperature 41 °F 41 °F 15 °F (1911)
Degree Days  
Heating Degree Days 20 15  
Month to date heating degree days 60  
Since 1 July heating degree days 696  
Cooling Degree Days 0 0  
Month to date cooling degree days 0  
Year to date cooling degree days 0  
Moisture  
Dew Point 34 °F    
Average Humidity 63    
Maximum Humidity 76    
Minimum Humidity 35    
Precipitation  
Precipitation 0.02 in 0.10 in 2.60 in (1929)
Month to date precipitation 0.39  
Year to date precipitation 0.39  
Sea Level Pressure  
Sea Level Pressure 30.45 in    
Wind  
Wind Speed 0 mph (North)    
Max Wind Speed 0 mph    
Max Gust Speed -    
Visibility 9 miles    
Events Rain    
T = Trace of Precipitation, MM = Missing Value Source: NWS Daily Summary

Daily Weather History Graph

Daily Weather History Graph

Search for Another Location

Airport or City:

Trip Planner

Search our weather history database for the weather conditions in past years. The results will help you decide how hot, cold, wet, or windy it might be!

Date:

Astronomy

Jan. 04, 2013 Rise Set
Actual Time 7:25 AM CST 5:38 PM CST
Civil Twilight 6:58 AM CST 6:04 PM CST
Nautical Twilight 6:28 AM CST 6:34 PM CST
Astronomical Twilight 5:59 AM CST 7:04 PM CST
Moon No Moon Rise 11:39 AM CST (1/4)
Length of Visible Light 11h 06m
Length of Day
10h 13m
Waning Gibbous, 55% of the Moon is Illuminated
Jan 4
Waning Gibbous
Jan 4
Last Quarter
Jan 11
New
Jan 18
First Quarter
Jan 26
Full

Hourly Weather History & Observations

Time (CST) Temp. Dew Point Humidity Pressure Visibility Wind Dir Wind Speed Gust Speed Precip Events Conditions
12:15 AM 50.0 °F 24.8 °F 37% 30.42 in 10.0 mi Calm Calm - N/A   Overcast
12:35 AM 50.0 °F 23.0 °F 35% 30.42 in 10.0 mi Calm Calm - N/A   Overcast
12:55 AM 50.0 °F 23.0 °F 35% 30.41 in 10.0 mi Calm Calm - N/A   Overcast
1:35 AM 50.0 °F 23.0 °F 35% 30.41 in 10.0 mi Calm Calm - N/A   Overcast
1:55 AM 48.2 °F 24.8 °F 40% 30.41 in 10.0 mi Calm Calm - N/A   Overcast
2:15 AM 48.2 °F 23.0 °F 37% 30.41 in 10.0 mi Calm Calm - N/A   Overcast
2:35 AM 48.2 °F 23.0 °F 37% 30.40 in 10.0 mi Calm Calm - N/A   Overcast
2:55 AM 48.2 °F 24.8 °F 40% 30.43 in 10.0 mi Calm Calm - N/A   Light Drizzle
3:15 AM 46.4 °F 30.2 °F 53% 30.47 in 10.0 mi Calm Calm - N/A Rain Light Rain
5:55 AM 42.8 °F 32.0 °F 66% 30.50 in 5.0 mi Calm Calm - N/A Rain Rain
6:15 AM 41.0 °F 32.0 °F 70% 30.49 in 5.0 mi Calm Calm - N/A Rain Rain
6:35 AM 41.0 °F 32.0 °F 70% 30.51 in 10.0 mi Calm Calm - N/A Rain Light Rain
6:55 AM 42.8 °F 33.8 °F 70% 30.51 in 10.0 mi Calm Calm - N/A Rain Light Rain
7:15 AM 42.8 °F 33.8 °F 70% 30.51 in 10.0 mi Calm Calm - N/A   Light Drizzle
7:35 AM 42.8 °F 33.8 °F 70% 30.52 in 10.0 mi Calm Calm - N/A   Overcast
7:55 AM 42.8 °F 33.8 °F 70% 30.52 in 10.0 mi Calm Calm - 0.01 in   Overcast
8:15 AM 42.8 °F 33.8 °F 70% 30.53 in 10.0 mi Calm Calm - N/A Rain Rain
8:35 AM 42.8 °F 33.8 °F 70% 30.53 in 10.0 mi Calm Calm - N/A Rain Light Rain
8:55 AM 42.8 °F 33.8 °F 70% 30.54 in 10.0 mi Calm Calm - N/A Rain Light Rain
9:15 AM 42.8 °F 33.8 °F 70% 30.54 in 10.0 mi Calm Calm - N/A   Light Drizzle
9:35 AM 42.8 °F 35.6 °F 76% 30.53 in 10.0 mi Calm Calm - N/A   Overcast
9:55 AM 44.6 °F 35.6 °F 71% 30.54 in 10.0 mi Calm Calm - N/A Rain Light Rain
10:15 AM 44.6 °F 35.6 °F 71% 30.54 in 10.0 mi Calm Calm - N/A Rain Light Rain
10:35 AM 44.6 °F 35.6 °F 71% 30.53 in 10.0 mi Calm Calm - N/A   Overcast
10:55 AM 46.4 °F 35.6 °F 66% 30.53 in 10.0 mi Calm Calm - N/A   Overcast
11:15 AM 46.4 °F 35.6 °F 66% 30.52 in 10.0 mi Calm Calm - N/A   Overcast
11:35 AM 46.4 °F 33.8 °F 62% 30.52 in 10.0 mi Calm Calm - N/A   Overcast
11:55 AM 46.4 °F 33.8 °F 62% 30.50 in 10.0 mi Calm Calm - N/A   Light Drizzle
12:15 PM 46.4 °F 33.8 °F 62% 30.49 in 10.0 mi Calm Calm - N/A   Light Drizzle
12:35 PM 48.2 °F 33.8 °F 58% 30.48 in 10.0 mi Calm Calm - N/A   Overcast
12:55 PM 48.2 °F 32.0 °F 54% 30.47 in 10.0 mi Calm Calm - N/A   Overcast
1:15 PM 48.2 °F 32.0 °F 54% 30.46 in 10.0 mi Calm Calm - N/A   Overcast
1:35 PM 50.0 °F 32.0 °F 50% 30.44 in 10.0 mi Calm Calm - N/A   Overcast
1:55 PM 50.0 °F 32.0 °F 50% 30.43 in 10.0 mi Calm Calm - N/A   Overcast
2:15 PM 50.0 °F 32.0 °F 50% 30.42 in 10.0 mi Calm Calm - N/A   Overcast
2:35 PM 50.0 °F 32.0 °F 50% 30.41 in 10.0 mi Calm Calm - N/A   Overcast
2:55 PM 50.0 °F 32.0 °F 50% 30.41 in 10.0 mi Calm Calm - N/A   Light Drizzle
3:15 PM 50.0 °F 33.8 °F 54% 30.41 in 10.0 mi Calm Calm - N/A Rain Light Rain
3:35 PM 48.2 °F 35.6 °F 62% 30.41 in 7.0 mi Calm Calm - 0.01 in Rain Rain
3:55 PM 46.4 °F 35.6 °F 66% 30.40 in 10.0 mi Calm Calm - 0.01 in Rain Light Rain
4:15 PM 46.4 °F 35.6 °F 66% 30.42 in 10.0 mi Calm Calm - N/A Rain Light Rain
4:35 PM 48.2 °F 35.6 °F 62% 30.43 in 10.0 mi Calm Calm - N/A Rain Light Rain
4:55 PM 46.4 °F 35.6 °F 66% 30.42 in 10.0 mi Calm Calm - N/A   Unknown
5:15 PM 46.4 °F 35.6 °F 66% 30.43 in 7.0 mi Calm Calm - N/A Rain Light Rain
5:35 PM 46.4 °F 37.4 °F 71% 30.43 in 10.0 mi Calm Calm - N/A Rain Light Rain
5:55 PM 46.4 °F 37.4 °F 71% 30.43 in 10.0 mi Calm Calm - N/A   Light Drizzle
6:15 PM 46.4 °F 37.4 °F 71% 30.43 in 10.0 mi Calm Calm - N/A   Light Drizzle
6:35 PM 46.4 °F 37.4 °F 71% 30.43 in 10.0 mi Calm Calm - N/A Rain Rain
6:55 PM 46.4 °F 37.4 °F 71% 30.42 in 10.0 mi Calm Calm - N/A   Overcast
7:15 PM 46.4 °F 37.4 °F 71% 30.43 in 10.0 mi Calm Calm - N/A   Overcast
7:35 PM 46.4 °F 37.4 °F 71% 30.43 in 10.0 mi Calm Calm - N/A   Light Drizzle
7:55 PM 46.4 °F 37.4 °F 71% 30.43 in 7.0 mi Calm Calm - N/A   Unknown
8:15 PM 46.4 °F 37.4 °F 71% 30.42 in 10.0 mi Calm Calm - N/A   Overcast
8:35 PM 46.4 °F 37.4 °F 71% 30.41 in 10.0 mi Calm Calm - N/A   Overcast
8:55 PM 46.4 °F 37.4 °F 71% 30.42 in 10.0 mi Calm Calm - N/A   Overcast
9:15 PM 46.4 °F 37.4 °F 71% 30.41 in 10.0 mi Calm Calm - N/A   Overcast
9:35 PM 46.4 °F 37.4 °F 71% 30.41 in 7.0 mi Calm Calm - N/A   Overcast
9:55 PM 44.6 °F 37.4 °F 76% 30.43 in 7.0 mi Calm Calm - N/A Rain Light Rain
10:15 PM 44.6 °F 37.4 °F 76% 30.41 in 7.0 mi Calm Calm - N/A   Drizzle
10:35 PM 44.6 °F 37.4 °F 76% 30.41 in 7.0 mi Calm Calm - N/A Rain Light Rain
10:55 PM 44.6 °F 37.4 °F 76% 30.42 in 7.0 mi Calm Calm - N/A Rain Light Rain
11:15 PM 44.6 °F 37.4 °F 76% 30.41 in 7.0 mi Calm Calm - N/A Rain Rain
11:35 PM 44.6 °F 37.4 °F 76% 30.41 in 10.0 mi Calm Calm - N/A   Overcast
11:55 PM 44.6 °F 37.4 °F 76% 30.41 in 10.0 mi Calm Calm - N/A   Overcast